This demonstration page uses our WeatherBlox Daily Observations layout. Learn more.

Left ArrowRight Arrow

30.21309, -93.2044

Hourly Observations for February 2, 2022

Temp ( °F °C ) Dew Point ( °F °C ) Humidity (%) Winds ( mph kmh ) Pressure ( in mb ) Visibility ( mi km ) Precip ( " mm )
12:15 am 00:15 Cloudy with Mist and Fog 61 15.9 60 15.3 96 96 Calm 29.89 1012 1 2 0.00 0.00
12:35 am 00:35 Cloudy with Mist and Fog 61 16 60 15.4 96 96 WSW 6 9 29.89 1012 3 4 0.00 0.00
12:55 am 00:55 Cloudy with Mist and Fog 61 16.1 60 15.4 96 96 S 3 6 29.89 1012 7 11 0.00 0.00
1:15 am 01:15 Cloudy with Mist and Fog 60 15.8 59 15.1 96 96 ESE 7 11 29.88 1012 3 4 0.00 0.00
1:35 am 01:35 Cloudy with Mist and Fog 60 15.5 59 14.8 96 96 ESE 5 7 29.89 1012 1 2 0.00 0.00
1:55 am 01:55 Cloudy with Mist and Fog 60 15.4 58 14.7 96 96 ESE 3 6 29.88 1012 1 2 0.00 0.00
2:15 am 02:15 Cloudy with Mist and Fog 60 15.3 58 14.7 96 96 ESE 6 9 29.87 1012 1 2 0.00 0.00
2:35 am 02:35 Cloudy with Mist and Fog 60 15.3 58 14.7 96 96 ESE 5 7 29.87 1012 2 2 0.00 0.00
2:55 am 02:55 Cloudy with Mist and Fog 60 15.4 59 14.8 96 96 ESE 3 6 29.87 1012 1 2 0.00 0.00
3:15 am 03:15 Cloudy with Mist and Fog 60 15.4 59 14.8 96 96 E 3 6 29.86 1011 1 2 0.00 0.00
3:35 am 03:35 Cloudy with Mist and Fog 60 15.3 58 14.7 96 96 Calm 29.87 1012 1 1 0.00 0.00
3:55 am 03:55 Cloudy with Fog 60 15.4 59 14.8 96 96 Calm 29.86 1011 1 1 0.00 0.00
4:15 am 04:15 Cloudy with Fog 60 15.4 59 14.8 96 96 Calm 29.86 1011 1 1 0.00 0.00
4:35 am 04:35 Cloudy with Fog 60 15.5 59 14.9 96 96 Calm 29.86 1011 1 1 0.00 0.00
4:55 am 04:55 Cloudy with Fog 60 15.5 59 14.9 96 96 E 5 7 29.85 1011 1 1 0.00 0.00
5:15 am 05:15 Cloudy with Fog 60 15.4 59 14.8 96 96 E 5 7 29.85 1011 1 1 0.00 0.00
5:35 am 05:35 Cloudy with Fog 60 15.4 59 14.8 96 96 ESE 3 6 29.86 1011 1 1 0.00 0.00
6:00 am 06:00 Cloudy with Fog 61 16 59 15 94 94 Calm 29.86 1011 0 0 0.00 0.00
6:50 am 06:50 Mostly Cloudy with Fog 61 16 59 15 94 94 Calm 29.87 1012 0 0 0.00 0.00
7:45 am 07:45 Mostly Cloudy with Fog 61 16 59 15 94 94 Calm 29.87 1012 0 0 0.00 0.00
8:45 am 08:45 Mostly Cloudy with Fog 63 17 61 16 94 94 Calm 29.90 1013 0 0 0.00 0.00
9:45 am 09:45 Mostly Cloudy with Fog 63 17 63 17 100 100 Calm 29.90 1013 0 0 0.00 0.00
10:45 am 10:45 Cloudy with Mist and Fog 64 18 63 17 94 94 Calm 29.92 1013 2 3 0.00 0.00
11:32 am 11:32 Cloudy 66 19 63 17 88 88 Calm 29.92 1013 10 16 0.00 0.00
11:45 am 11:45 Mostly Cloudy 66 19 63 17 88 88 Calm 29.92 1013 10 16 0.00 0.00
12:55 pm 12:55 Mostly Cloudy 72 22 63 17 73 73 Calm 29.88 1012 10 16 0.00 0.00
1:55 pm 13:55 Mostly Cloudy 73 23 63 17 69 69 ENE 6 9 29.85 1011 10 16 0.00 0.00
2:55 pm 14:55 Partly Cloudy 72 22 63 17 73 73 SE 8 13 29.85 1011 10 16 0.00 0.00
3:55 pm 15:55 Partly Cloudy 73 23 63 17 69 69 E 7 11 29.85 1011 10 16 0.00 0.00
4:55 pm 16:55 Mostly Sunny 72 22 63 17 73 73 E 8 13 29.84 1010 10 16 0.00 0.00
5:52 pm 17:52 Mostly Cloudy 68 20 63 17 83 83 ENE 6 9 29.84 1010 10 16 0.00 0.00
6:55 pm 18:55 Mostly Cloudy 68 20 63 17 83 83 ENE 7 11 29.83 1010 10 16 0.00 0.00
7:47 pm 19:47 Partly Cloudy 66 19 63 17 88 88 E 9 15 29.84 1010 10 16 0.00 0.00
8:49 pm 20:49 Mostly Cloudy 64 18 63 17 94 94 E 9 15 29.84 1010 10 16 0.00 0.00
9:55 pm 21:55 Cloudy 64 18 63 17 94 94 ESE 6 9 29.83 1010 10 16 0.00 0.00
10:15 pm 22:15 Cloudy 66 19 63 17.4 91 91 SE 10 17 29.83 1010 10 16 0.00 0.00
10:35 pm 22:35 Cloudy 66 19.1 63 17.4 90 90 SE 14 22 29.82 1010 7 11 0.00 0.00
10:55 pm 22:55 Cloudy with Mist and Fog 66 18.9 64 17.5 92 92 SE 15 24 29.81 1009 5 8 0.00 0.00
11:15 pm 23:15 Cloudy with Mist and Fog 66 18.7 63 17.3 92 92 SE 14 22 29.81 1009 5 8 0.00 0.00
11:35 pm 23:35 Cloudy 66 18.7 63 17.2 91 91 SSE 13 20 29.81 1009 10 16 0.00 0.00
11:55 pm 23:55 Cloudy 66 18.8 64 17.5 92 92 SE 15 24 29.80 1009 10 16 0.00 0.00

Powered by AerisWeather